| time (UTC) | temp F | wind direction | speed MPH | gust MPH | rain 1hr in | rain 24hr in | rain mn in | humidity % | barometer mb |
| 20260831023003 | 66 | 248 | 1.0 | 3.0 | 0.07 | 0.12 | 0.12 | 91 | 1019.7 |
| 20260831022503 | 66 | 248 | 1.0 | 3.0 | 0.05 | 0.10 | 0.10 | 91 | 1019.7 |
| 20260831022003 | 66 | 248 | 0.0 | 3.0 | 0.04 | 0.09 | 0.09 | 91 | 1019.9 |
| 20260831021503 | 65 | 248 | 0.0 | 2.0 | 0.03 | 0.08 | 0.08 | 91 | 1020.0 |
| 20260831021003 | 65 | 248 | 0.0 | 2.0 | 0.02 | 0.07 | 0.07 | 91 | 1020.0 |
| 20260831020524 | 65 | 0 | 0.0 | 0.0 | 0.00 | 0.05 | 0.05 | 91 | 1020.0 |
| 20260831020024 | 65 | 0 | 0.0 | 0.0 | 0.00 | 0.05 | 0.05 | 91 | 1020.0 |
| 20260831015503 | 65 | 0 | 0.0 | 0.0 | 0.00 | 0.05 | 0.05 | 90 | 1020.0 |
| 20260831015003 | 65 | 0 | 0.0 | 0.0 | 0.00 | 0.05 | 0.05 | 90 | 1020.0 |
| 20260831014503 | 65 | 0 | 0.0 | 0.0 | 0.00 | 0.05 | 0.05 | 90 | 1020.0 |
| 20260831014003 | 65 | 0 | 0.0 | 0.0 | 0.00 | 0.05 | 0.05 | 90 | 1020.0 |
| 20260831013503 | 65 | 0 | 0.0 | 0.0 | 0.00 | 0.05 | 0.05 | 90 | 1020.1 |
| 20260831013003 | 65 | 0 | 0.0 | 0.0 | 0.00 | 0.05 | 0.05 | 90 | 1020.1 |
| 20260831012503 | 65 | 0 | 0.0 | 0.0 | 0.00 | 0.05 | 0.05 | 90 | 1020.0 |
| 20260831012003 | 65 | 0 | 0.0 | 0.0 | 0.00 | 0.05 | 0.05 | 90 | 1019.9 |
| 20260831011503 | 65 | 0 | 0.0 | 0.0 | 0.00 | 0.05 | 0.05 | 90 | 1019.9 |
| 20260831011003 | 65 | 0 | 0.0 | 0.0 | 0.00 | 0.05 | 0.05 | 90 | 1019.8 |
| 20260831010503 | 65 | 0 | 0.0 | 0.0 | 0.00 | 0.05 | 0.05 | 89 | 1019.8 |
| 20260831010003 | 65 | 0 | 0.0 | 0.0 | 0.00 | 0.05 | 0.05 | 89 | 1019.9 |
| 20260831005503 | 65 | 0 | 0.0 | 0.0 | 0.00 | 0.05 | 0.05 | 89 | 1019.7 |
| 20260831005024 | 65 | 0 | 0.0 | 0.0 | 0.00 | 0.05 | 0.05 | 89 | 1019.6 |
| 20260831004503 | 65 | 0 | 0.0 | 0.0 | 0.00 | 0.05 | 0.05 | 89 | 1019.7 |
| 20260831004003 | 65 | 0 | 0.0 | 0.0 | 0.00 | 0.05 | 0.05 | 89 | 1019.6 |
| 20260831003524 | 65 | 0 | 0.0 | 0.0 | 0.00 | 0.05 | 0.05 | 89 | 1019.6 |
| 20260831003024 | 65 | 0 | 0.0 | 0.0 | 0.00 | 0.05 | 0.05 | 89 | 1019.5 |
| 20260831002503 | 65 | 0 | 0.0 | 0.0 | 0.00 | 0.05 | 0.05 | 89 | 1019.4 |
| 20260831002003 | 65 | 0 | 0.0 | 0.0 | 0.00 | 0.05 | 0.05 | 89 | 1019.3 |
| 20260831001503 | 65 | 248 | 0.0 | 2.0 | 0.00 | 0.05 | 0.05 | 89 | 1019.3 |
| 20260831001003 | 65 | 248 | 0.0 | 2.0 | 0.00 | 0.05 | 0.05 | 89 | 1019.4 |
| 20260831000503 | 65 | 248 | 0.0 | 2.0 | 0.00 | 0.05 | 0.05 | 89 | 1019.4 |
| 20260831000003 | 65 | 248 | 0.0 | 2.0 | 0.00 | 0.05 | 0.05 | 88 | 1019.3 |
| 20260830235503 | 65 | 248 | 0.0 | 2.0 | 0.00 | 0.05 | 0.05 | 88 | 1019.3 |
| 20260830235024 | 65 | 0 | 0.0 | 0.0 | 0.00 | 0.05 | 0.05 | 88 | 1019.4 |
| 20260830234503 | 66 | 0 | 0.0 | 0.0 | 0.00 | 0.05 | 0.05 | 88 | 1019.3 |
| 20260830234003 | 65 | 0 | 0.0 | 0.0 | 0.00 | 0.05 | 0.05 | 87 | 1019.2 |
| 20260830233503 | 66 | 0 | 0.0 | 0.0 | 0.00 | 0.05 | 0.05 | 87 | 1019.2 |
| 20260830233003 | 66 | 0 | 0.0 | 0.0 | 0.00 | 0.05 | 0.05 | 87 | 1019.2 |
| 20260830232503 | 66 | 0 | 0.0 | 0.0 | 0.00 | 0.05 | 0.05 | 87 | 1019.1 |
| 20260830232024 | 66 | 0 | 0.0 | 0.0 | 0.00 | 0.05 | 0.05 | 87 | 1019.0 |
| 20260830231503 | 66 | 0 | 0.0 | 0.0 | 0.00 | 0.05 | 0.05 | 86 | 1019.0 |
| 20260830231003 | 66 | 0 | 0.0 | 0.0 | 0.00 | 0.05 | 0.05 | 86 | 1019.2 |
| 20260830230503 | 66 | 0 | 0.0 | 0.0 | 0.00 | 0.05 | 0.05 | 86 | 1019.2 |
| 20260830230003 | 66 | 0 | 0.0 | 0.0 | 0.00 | 0.05 | 0.05 | 86 | 1019.2 |
| 20260830225503 | 66 | 0 | 0.0 | 0.0 | 0.00 | 0.05 | 0.05 | 86 | 1019.2 |
| 20260830225003 | 66 | 0 | 0.0 | 0.0 | 0.00 | 0.05 | 0.05 | 85 | 1019.2 |
| 20260830224503 | 67 | 0 | 0.0 | 0.0 | 0.00 | 0.05 | 0.05 | 85 | 1019.3 |
| 20260830224003 | 67 | 0 | 0.0 | 0.0 | 0.00 | 0.05 | 0.05 | 85 | 1019.3 |
| 20260830223503 | 67 | 0 | 0.0 | 0.0 | 0.00 | 0.05 | 0.05 | 85 | 1019.2 |
| 20260830223003 | 67 | 0 | 0.0 | 0.0 | 0.00 | 0.05 | 0.05 | 85 | 1019.3 |
| 20260830222503 | 67 | 0 | 0.0 | 0.0 | 0.00 | 0.05 | 0.05 | 84 | 1019.3 |
| 20260830222003 | 67 | 0 | 0.0 | 0.0 | 0.00 | 0.05 | 0.05 | 84 | 1019.3 |
| 20260830221503 | 67 | 0 | 0.0 | 0.0 | 0.00 | 0.05 | 0.05 | 84 | 1019.3 |
| 20260830221024 | 67 | 0 | 0.0 | 0.0 | 0.00 | 0.05 | 0.05 | 84 | 1019.2 |
| 20260830220524 | 67 | 0 | 0.0 | 0.0 | 0.00 | 0.05 | 0.05 | 83 | 1019.2 |
| 20260830220003 | 67 | 0 | 0.0 | 0.0 | 0.00 | 0.05 | 0.05 | 84 | 1019.2 |
| 20260830215503 | 67 | 0 | 0.0 | 0.0 | 0.00 | 0.05 | 0.05 | 83 | 1019.2 |
| 20260830215003 | 67 | 0 | 0.0 | 0.0 | 0.00 | 0.05 | 0.05 | 82 | 1019.2 |
| 20260830214503 | 67 | 0 | 0.0 | 0.0 | 0.00 | 0.05 | 0.05 | 82 | 1019.2 |
| 20260830214003 | 67 | 0 | 0.0 | 0.0 | 0.00 | 0.05 | 0.05 | 82 | 1019.2 |
| 20260830213503 | 67 | 0 | 0.0 | 0.0 | 0.00 | 0.05 | 0.05 | 82 | 1019.2 |
| 20260830213003 | 67 | 0 | 0.0 | 0.0 | 0.00 | 0.05 | 0.05 | 82 | 1019.3 |
| 20260830212524 | 67 | 0 | 0.0 | 0.0 | 0.00 | 0.05 | 0.05 | 83 | 1019.3 |
| 20260830212003 | 67 | 248 | 0.0 | 1.0 | 0.00 | 0.05 | 0.05 | 82 | 1019.2 |
| 20260830211503 | 67 | 248 | 0.0 | 1.0 | 0.00 | 0.05 | 0.05 | 83 | 1019.2 |
| 20260830211003 | 67 | 248 | 0.0 | 2.0 | 0.00 | 0.05 | 0.05 | 83 | 1019.3 |
| 20260830210503 | 67 | 248 | 0.0 | 2.0 | 0.00 | 0.05 | 0.05 | 83 | 1019.4 |
| 20260830210003 | 67 | 248 | 0.0 | 1.0 | 0.00 | 0.05 | 0.05 | 83 | 1019.4 |
| 20260830205503 | 67 | 248 | 0.0 | 4.0 | 0.00 | 0.05 | 0.05 | 83 | 1019.4 |
| 20260830205003 | 67 | 248 | 1.0 | 4.0 | 0.00 | 0.05 | 0.05 | 82 | 1019.4 |
| 20260830204524 | 67 | 248 | 1.0 | 4.0 | 0.00 | 0.05 | 0.05 | 82 | 1019.3 |
| 20260830204003 | 67 | 248 | 1.0 | 4.0 | 0.00 | 0.05 | 0.05 | 83 | 1019.4 |
| 20260830203503 | 67 | 248 | 0.0 | 3.0 | 0.00 | 0.05 | 0.05 | 84 | 1019.4 |
| 20260830203003 | 67 | 248 | 1.0 | 3.0 | 0.00 | 0.05 | 0.05 | 84 | 1019.5 |
| 20260830202503 | 67 | 248 | 1.0 | 3.0 | 0.00 | 0.05 | 0.05 | 83 | 1019.5 |
| 20260830202003 | 67 | 248 | 1.0 | 3.0 | 0.00 | 0.05 | 0.05 | 83 | 1019.5 |
| 20260830201503 | 67 | 248 | 2.0 | 5.0 | 0.00 | 0.05 | 0.05 | 83 | 1019.5 |
| 20260830201003 | 67 | 248 | 2.0 | 5.0 | 0.00 | 0.05 | 0.05 | 83 | 1019.6 |
| 20260830200524 | 67 | 248 | 2.0 | 4.0 | 0.00 | 0.05 | 0.05 | 84 | 1019.7 |
| 20260830200003 | 67 | 248 | 1.0 | 4.0 | 0.00 | 0.05 | 0.05 | 84 | 1019.7 |
| 20260830195503 | 67 | 248 | 1.0 | 4.0 | 0.00 | 0.05 | 0.05 | 85 | 1019.7 |
| 20260830195003 | 67 | 244 | 2.0 | 7.0 | 0.00 | 0.05 | 0.05 | 85 | 1019.8 |
| 20260830194503 | 67 | 230 | 1.0 | 7.0 | 0.00 | 0.05 | 0.05 | 85 | 1019.8 |
| 20260830194024 | 67 | 217 | 1.0 | 5.0 | 0.00 | 0.05 | 0.05 | 85 | 1019.8 |
| 20260830193503 | 67 | 217 | 1.0 | 4.0 | 0.00 | 0.05 | 0.05 | 85 | 1019.7 |
| 20260830193003 | 67 | 217 | 1.0 | 4.0 | 0.00 | 0.05 | 0.05 | 86 | 1019.8 |
| 20260830192524 | 67 | 217 | 1.0 | 3.0 | 0.00 | 0.05 | 0.05 | 86 | 1019.8 |
| 20260830192003 | 67 | 217 | 1.0 | 4.0 | 0.00 | 0.05 | 0.05 | 86 | 1019.7 |
| 20260830191503 | 67 | 217 | 2.0 | 4.0 | 0.00 | 0.05 | 0.05 | 86 | 1019.8 |
| 20260830191003 | 67 | 217 | 1.0 | 4.0 | 0.00 | 0.05 | 0.05 | 86 | 1019.8 |
| 20260830190503 | 68 | 217 | 1.0 | 4.0 | 0.00 | 0.05 | 0.05 | 86 | 1019.7 |
| 20260830190003 | 68 | 216 | 2.0 | 6.0 | 0.00 | 0.05 | 0.05 | 86 | 1019.7 |
| 20260830185524 | 68 | 215 | 2.0 | 6.0 | 0.00 | 0.05 | 0.05 | 86 | 1020.0 |
| 20260830185003 | 68 | 215 | 2.0 | 4.0 | 0.00 | 0.05 | 0.05 | 86 | 1020.0 |
| 20260830184503 | 68 | 213 | 2.0 | 6.0 | 0.00 | 0.05 | 0.05 | 86 | 1020.1 |
| 20260830184003 | 68 | 210 | 2.0 | 6.0 | 0.00 | 0.05 | 0.05 | 86 | 1020.1 |
| 20260830183503 | 68 | 221 | 1.0 | 5.0 | 0.00 | 0.05 | 0.05 | 87 | 1020.1 |
| 20260830183003 | 68 | 246 | 2.0 | 8.0 | 0.00 | 0.05 | 0.05 | 88 | 1020.2 |
| 20260830182503 | 68 | 224 | 2.0 | 8.0 | 0.00 | 0.05 | 0.05 | 88 | 1020.2 |
| 20260830182003 | 68 | 171 | 1.0 | 5.0 | 0.00 | 0.05 | 0.05 | 88 | 1020.3 |
| 20260830181503 | 68 | 171 | 1.0 | 5.0 | 0.00 | 0.05 | 0.05 | 88 | 1020.3 |
| 20260830181003 | 68 | 171 | 0.0 | 2.0 | 0.00 | 0.05 | 0.05 | 88 | 1020.3 |
| 20260830180503 | 68 | 171 | 0.0 | 2.0 | 0.00 | 0.05 | 0.05 | 88 | 1020.1 |
| 20260830180003 | 68 | 171 | 1.0 | 4.0 | 0.00 | 0.05 | 0.05 | 88 | 1020.1 |
| 20260830175524 | 68 | 171 | 1.0 | 6.0 | 0.00 | 0.05 | 0.05 | 87 | 1020.1 |
| 20260830175003 | 68 | 166 | 1.0 | 6.0 | 0.00 | 0.05 | 0.05 | 87 | 1020.2 |
| 20260830174503 | 68 | 146 | 0.0 | 4.0 | 0.00 | 0.05 | 0.05 | 87 | 1020.2 |
| 20260830174003 | 69 | 146 | 0.0 | 2.0 | 0.00 | 0.05 | 0.05 | 88 | 1020.1 |
| 20260830173503 | 68 | 146 | 0.0 | 2.0 | 0.00 | 0.05 | 0.05 | 87 | 1020.1 |
| 20260830173003 | 69 | 146 | 0.0 | 2.0 | 0.00 | 0.05 | 0.05 | 87 | 1020.0 |
| 20260830172503 | 69 | 146 | 1.0 | 3.0 | 0.00 | 0.05 | 0.05 | 88 | 1020.0 |
| 20260830172003 | 68 | 146 | 1.0 | 3.0 | 0.00 | 0.05 | 0.05 | 88 | 1020.0 |
| 20260830171524 | 68 | 145 | 0.0 | 3.0 | 0.00 | 0.05 | 0.05 | 88 | 1020.0 |
| 20260830171003 | 68 | 0 | 0.0 | 0.0 | 0.00 | 0.05 | 0.05 | 88 | 1020.0 |
| 20260830170503 | 68 | 145 | 0.0 | 1.0 | 0.00 | 0.05 | 0.05 | 88 | 1020.1 |
| 20260830170024 | 68 | 145 | 1.0 | 3.0 | 0.00 | 0.05 | 0.05 | 88 | 1020.1 |
| 20260830165503 | 68 | 147 | 2.0 | 5.0 | 0.01 | 0.05 | 0.05 | 88 | 1019.9 |
| 20260830165003 | 68 | 148 | 2.0 | 5.0 | 0.03 | 0.05 | 0.05 | 88 | 1019.9 |
| 20260830164503 | 68 | 149 | 1.0 | 5.0 | 0.04 | 0.05 | 0.05 | 89 | 1019.8 |
| 20260830164003 | 68 | 149 | 1.0 | 5.0 | 0.05 | 0.05 | 0.05 | 89 | 1019.9 |
| 20260830163503 | 68 | 149 | 1.0 | 6.0 | 0.05 | 0.05 | 0.05 | 89 | 1019.9 |
| 20260830163003 | 67 | 149 | 2.0 | 6.0 | 0.05 | 0.05 | 0.05 | 89 | 1019.8 |
| 20260830162503 | 67 | 153 | 2.0 | 6.0 | 0.05 | 0.05 | 0.05 | 89 | 1020.0 |
| 20260830162003 | 67 | 172 | 2.0 | 6.0 | 0.05 | 0.05 | 0.05 | 89 | 1020.0 |
| 20260830161503 | 67 | 206 | 1.0 | 6.0 | 0.05 | 0.05 | 0.05 | 89 | 1020.1 |
| 20260830161004 | 67 | 227 | 1.0 | 4.0 | 0.05 | 0.05 | 0.05 | 89 | 1020.1 |
| 20260830160503 | 67 | 229 | 0.0 | 2.0 | 0.05 | 0.05 | 0.05 | 88 | 1020.2 |
| 20260830160003 | 67 | 229 | 1.0 | 4.0 | 0.05 | 0.05 | 0.05 | 87 | 1020.2 |
| 20260830155503 | 67 | 229 | 1.0 | 4.0 | 0.04 | 0.04 | 0.04 | 87 | 1020.6 |
| 20260830155003 | 67 | 222 | 1.0 | 5.0 | 0.02 | 0.02 | 0.02 | 86 | 1020.7 |
| 20260830154503 | 67 | 214 | 1.0 | 5.0 | 0.01 | 0.01 | 0.01 | 85 | 1020.5 |
| 20260830154003 | 68 | 209 | 1.0 | 3.0 | 0.00 | 0.00 | 0.00 | 84 | 1020.6 |
| 20260830153503 | 68 | 209 | 0.0 | 3.0 | 0.00 | 0.00 | 0.00 | 84 | 1020.5 |
| 20260830153024 | 68 | 209 | 0.0 | 3.0 | 0.00 | 0.00 | 0.00 | 84 | 1020.5 |
| 20260830152524 | 68 | 0 | 0.0 | 0.0 | 0.00 | 0.00 | 0.00 | 84 | 1020.5 |
| 20260830152003 | 68 | 0 | 0.0 | 0.0 | 0.00 | 0.00 | 0.00 | 84 | 1020.2 |
| 20260830151503 | 68 | 0 | 0.0 | 0.0 | 0.00 | 0.00 | 0.00 | 84 | 1020.2 |
| 20260830151003 | 68 | 0 | 0.0 | 0.0 | 0.00 | 0.00 | 0.00 | 83 | 1020.2 |
| 20260830150503 | 68 | 0 | 0.0 | 0.0 | 0.00 | 0.00 | 0.00 | 83 | 1020.2 |
| 20260830150024 | 68 | 0 | 0.0 | 0.0 | 0.00 | 0.00 | 0.00 | 83 | 1020.1 |
| 20260830145503 | 68 | 0 | 0.0 | 0.0 | 0.00 | 0.00 | 0.00 | 82 | 1020.1 |
| 20260830145003 | 68 | 0 | 0.0 | 0.0 | 0.00 | 0.00 | 0.00 | 82 | 1020.0 |
| 20260830144503 | 68 | 0 | 0.0 | 0.0 | 0.00 | 0.00 | 0.00 | 83 | 1019.7 |
| 20260830144003 | 67 | 0 | 0.0 | 0.0 | 0.00 | 0.00 | 0.00 | 82 | 1019.8 |
| 20260830143503 | 67 | 0 | 0.0 | 0.0 | 0.00 | 0.00 | 0.00 | 81 | 1019.7 |
| 20260830143003 | 67 | 0 | 0.0 | 0.0 | 0.00 | 0.00 | 0.00 | 81 | 1019.7 |
| 20260830142524 | 67 | 0 | 0.0 | 0.0 | 0.00 | 0.00 | 0.00 | 82 | 1019.7 |
| 20260830142024 | 67 | 0 | 0.0 | 0.0 | 0.00 | 0.00 | 0.00 | 82 | 1019.6 |
| 20260830141503 | 67 | 0 | 0.0 | 0.0 | 0.00 | 0.00 | 0.00 | 82 | 1019.5 |
| 20260830141003 | 66 | 0 | 0.0 | 0.0 | 0.00 | 0.00 | 0.00 | 82 | 1019.6 |
| 20260830140503 | 66 | 0 | 0.0 | 0.0 | 0.00 | 0.00 | 0.00 | 82 | 1019.6 |
| 20260830140003 | 66 | 0 | 0.0 | 0.0 | 0.00 | 0.00 | 0.00 | 83 | 1019.5 |
| 20260830135503 | 66 | 0 | 0.0 | 0.0 | 0.00 | 0.00 | 0.00 | 83 | 1019.5 |
| 20260830135003 | 66 | 0 | 0.0 | 0.0 | 0.00 | 0.00 | 0.00 | 83 | 1019.5 |
| 20260830134503 | 65 | 208 | 0.0 | 2.0 | 0.00 | 0.00 | 0.00 | 84 | 1019.6 |
| 20260830134003 | 65 | 208 | 0.0 | 2.0 | 0.00 | 0.00 | 0.00 | 84 | 1019.6 |
| 20260830133524 | 65 | 208 | 0.0 | 1.0 | 0.00 | 0.00 | 0.00 | 85 | 1019.6 |
| 20260830133003 | 65 | 0 | 0.0 | 0.0 | 0.00 | 0.00 | 0.00 | 85 | 1019.4 |
| 20260830132503 | 65 | 0 | 0.0 | 0.0 | 0.00 | 0.00 | 0.00 | 85 | 1019.4 |
| 20260830132003 | 64 | 0 | 0.0 | 0.0 | 0.00 | 0.00 | 0.00 | 86 | 1019.4 |
| 20260830131503 | 64 | 0 | 0.0 | 0.0 | 0.00 | 0.00 | 0.00 | 86 | 1019.3 |
| 20260830131003 | 64 | 0 | 0.0 | 0.0 | 0.00 | 0.00 | 0.00 | 87 | 1019.2 |
| 20260830130503 | 64 | 0 | 0.0 | 0.0 | 0.00 | 0.00 | 0.00 | 87 | 1019.3 |
| 20260830130003 | 64 | 0 | 0.0 | 0.0 | 0.00 | 0.00 | 0.00 | 87 | 1019.4 |
| 20260830125503 | 64 | 0 | 0.0 | 0.0 | 0.00 | 0.00 | 0.00 | 87 | 1019.3 |
| 20260830125024 | 64 | 0 | 0.0 | 0.0 | 0.00 | 0.00 | 0.00 | 87 | 1019.4 |
| 20260830124503 | 64 | 0 | 0.0 | 0.0 | 0.00 | 0.00 | 0.00 | 87 | 1019.4 |
| 20260830124003 | 64 | 0 | 0.0 | 0.0 | 0.00 | 0.00 | 0.00 | 87 | 1019.4 |
| 20260830123503 | 64 | 0 | 0.0 | 0.0 | 0.00 | 0.00 | 0.00 | 87 | 1019.5 |
| 20260830123003 | 64 | 0 | 0.0 | 0.0 | 0.00 | 0.00 | 0.00 | 87 | 1019.3 |
| 20260830122503 | 64 | 0 | 0.0 | 0.0 | 0.00 | 0.00 | 0.00 | 87 | 1019.3 |
| 20260830122003 | 63 | 0 | 0.0 | 0.0 | 0.00 | 0.00 | 0.00 | 87 | 1019.3 |
| 20260830121503 | 63 | 208 | 0.0 | 1.0 | 0.00 | 0.00 | 0.00 | 86 | 1019.5 |
| 20260830121003 | 63 | 208 | 0.0 | 1.0 | 0.00 | 0.00 | 0.00 | 86 | 1019.5 |
| 20260830120503 | 64 | 208 | 0.0 | 1.0 | 0.00 | 0.00 | 0.00 | 86 | 1019.5 |
| 20260830120003 | 64 | 0 | 0.0 | 0.0 | 0.00 | 0.00 | 0.00 | 86 | 1019.2 |
| 20260830115503 | 64 | 0 | 0.0 | 0.0 | 0.00 | 0.00 | 0.00 | 86 | 1019.1 |
| 20260830115003 | 63 | 0 | 0.0 | 0.0 | 0.00 | 0.00 | 0.00 | 86 | 1019.2 |
| 20260830114524 | 63 | 0 | 0.0 | 0.0 | 0.00 | 0.00 | 0.00 | 86 | 1019.4 |
| 20260830114003 | 63 | 0 | 0.0 | 0.0 | 0.00 | 0.00 | 0.00 | 86 | 1019.3 |
| 20260830113503 | 63 | 0 | 0.0 | 0.0 | 0.00 | 0.00 | 0.00 | 86 | 1019.3 |
| 20260830113024 | 62 | 0 | 0.0 | 0.0 | 0.00 | 0.00 | 0.00 | 86 | 1019.3 |
| 20260830112503 | 62 | 0 | 0.0 | 0.0 | 0.00 | 0.00 | 0.00 | 86 | 1019.3 |
| 20260830112003 | 62 | 0 | 0.0 | 0.0 | 0.00 | 0.00 | 0.00 | 87 | 1019.2 |
| 20260830111503 | 62 | 0 | 0.0 | 0.0 | 0.00 | 0.00 | 0.00 | 87 | 1019.2 |
| 20260830111003 | 62 | 0 | 0.0 | 0.0 | 0.00 | 0.00 | 0.00 | 87 | 1019.4 |
| 20260830110524 | 62 | 0 | 0.0 | 0.0 | 0.00 | 0.00 | 0.00 | 87 | 1019.4 |
| 20260830110003 | 62 | 0 | 0.0 | 0.0 | 0.00 | 0.00 | 0.00 | 87 | 1019.5 |
| 20260830105503 | 62 | 0 | 0.0 | 0.0 | 0.00 | 0.00 | 0.00 | 87 | 1019.4 |
| 20260830105003 | 62 | 0 | 0.0 | 0.0 | 0.00 | 0.00 | 0.00 | 87 | 1019.5 |
| 20260830104503 | 62 | 0 | 0.0 | 0.0 | 0.00 | 0.00 | 0.00 | 87 | 1019.4 |
| 20260830104003 | 62 | 0 | 0.0 | 0.0 | 0.00 | 0.00 | 0.00 | 86 | 1019.4 |
| 20260830103503 | 62 | 0 | 0.0 | 0.0 | 0.00 | 0.00 | 0.00 | 86 | 1019.4 |
| 20260830103003 | 62 | 0 | 0.0 | 0.0 | 0.00 | 0.00 | 0.00 | 86 | 1019.4 |
| 20260830102503 | 62 | 0 | 0.0 | 0.0 | 0.00 | 0.00 | 0.00 | 86 | 1019.4 |
| 20260830102003 | 62 | 0 | 0.0 | 0.0 | 0.00 | 0.00 | 0.00 | 86 | 1019.4 |
| 20260830101503 | 62 | 0 | 0.0 | 0.0 | 0.00 | 0.00 | 0.00 | 86 | 1019.3 |
| 20260830101003 | 62 | 0 | 0.0 | 0.0 | 0.00 | 0.00 | 0.00 | 86 | 1019.3 |
| 20260830100503 | 62 | 0 | 0.0 | 0.0 | 0.00 | 0.00 | 0.00 | 86 | 1019.4 |
| 20260830100024 | 62 | 0 | 0.0 | 0.0 | 0.00 | 0.00 | 0.00 | 85 | 1019.4 |
| 20260830095524 | 62 | 0 | 0.0 | 0.0 | 0.00 | 0.00 | 0.00 | 85 | 1019.4 |
| 20260830095003 | 62 | 0 | 0.0 | 0.0 | 0.00 | 0.00 | 0.00 | 85 | 1019.4 |
| 20260830094503 | 62 | 0 | 0.0 | 0.0 | 0.00 | 0.00 | 0.00 | 85 | 1019.3 |
| 20260830094003 | 62 | 0 | 0.0 | 0.0 | 0.00 | 0.00 | 0.00 | 85 | 1019.3 |
| 20260830093503 | 62 | 0 | 0.0 | 0.0 | 0.00 | 0.00 | 0.00 | 85 | 1019.3 |
| 20260830093024 | 62 | 0 | 0.0 | 0.0 | 0.00 | 0.00 | 0.00 | 85 | 1019.4 |
| 20260830092503 | 62 | 0 | 0.0 | 0.0 | 0.00 | 0.00 | 0.00 | 85 | 1019.3 |
| 20260830092003 | 62 | 0 | 0.0 | 0.0 | 0.00 | 0.00 | 0.00 | 85 | 1019.4 |
| 20260830091503 | 62 | 0 | 0.0 | 0.0 | 0.00 | 0.00 | 0.00 | 85 | 1019.4 |
| 20260830091003 | 62 | 0 | 0.0 | 0.0 | 0.00 | 0.00 | 0.00 | 85 | 1019.4 |
| 20260830090503 | 62 | 0 | 0.0 | 0.0 | 0.00 | 0.00 | 0.00 | 86 | 1019.5 |
| 20260830090003 | 62 | 0 | 0.0 | 0.0 | 0.00 | 0.00 | 0.00 | 86 | 1019.5 |
| 20260830085503 | 62 | 0 | 0.0 | 0.0 | 0.00 | 0.00 | 0.00 | 87 | 1019.5 |
| 20260830085024 | 62 | 0 | 0.0 | 0.0 | 0.00 | 0.00 | 0.00 | 87 | 1019.6 |
| 20260830084503 | 62 | 0 | 0.0 | 0.0 | 0.00 | 0.00 | 0.00 | 87 | 1019.6 |
| 20260830084003 | 62 | 0 | 0.0 | 0.0 | 0.00 | 0.00 | 0.00 | 87 | 1019.7 |
| 20260830083503 | 62 | 0 | 0.0 | 0.0 | 0.00 | 0.00 | 0.00 | 87 | 1019.7 |
| 20260830083003 | 62 | 0 | 0.0 | 0.0 | 0.00 | 0.00 | 0.00 | 87 | 1019.7 |
| 20260830082503 | 62 | 0 | 0.0 | 0.0 | 0.00 | 0.00 | 0.00 | 87 | 1019.7 |
| 20260830082003 | 61 | 0 | 0.0 | 0.0 | 0.00 | 0.00 | 0.00 | 87 | 1019.7 |
| 20260830081503 | 61 | 0 | 0.0 | 0.0 | 0.00 | 0.00 | 0.00 | 87 | 1019.8 |
| 20260830081003 | 61 | 0 | 0.0 | 0.0 | 0.00 | 0.00 | 0.00 | 87 | 1019.8 |
| 20260830080503 | 61 | 0 | 0.0 | 0.0 | 0.00 | 0.00 | 0.00 | 87 | 1019.9 |
| 20260830080004 | 61 | 0 | 0.0 | 0.0 | 0.00 | 0.00 | 0.00 | 87 | 1019.9 |
| 20260830075504 | 61 | 0 | 0.0 | 0.0 | 0.00 | 0.00 | 0.00 | 87 | 1019.9 |
| 20260830075024 | 61 | 0 | 0.0 | 0.0 | 0.00 | 0.00 | 0.00 | 87 | 1019.9 |
| 20260830074503 | 61 | 0 | 0.0 | 0.0 | 0.00 | 0.00 | 0.00 | 86 | 1019.9 |
| 20260830074003 | 61 | 0 | 0.0 | 0.0 | 0.00 | 0.00 | 0.00 | 86 | 1019.9 |
| 20260830073503 | 61 | 0 | 0.0 | 0.0 | 0.00 | 0.00 | 0.00 | 86 | 1019.9 |
| 20260830073003 | 61 | 0 | 0.0 | 0.0 | 0.00 | 0.00 | 0.00 | 86 | 1019.9 |
| 20260830072503 | 61 | 0 | 0.0 | 0.0 | 0.00 | 0.00 | 0.00 | 86 | 1019.9 |
| 20260830072003 | 61 | 0 | 0.0 | 0.0 | 0.00 | 0.00 | 0.00 | 85 | 1019.9 |
| 20260830071503 | 61 | 0 | 0.0 | 0.0 | 0.00 | 0.00 | 0.00 | 85 | 1019.9 |
| 20260830071003 | 61 | 0 | 0.0 | 0.0 | 0.00 | 0.00 | 0.00 | 85 | 1019.9 |
| 20260830070503 | 62 | 0 | 0.0 | 0.0 | 0.00 | 0.00 | 0.00 | 85 | 1019.9 |
| 20260830070003 | 62 | 0 | 0.0 | 0.0 | 0.00 | 0.00 | 0.00 | 85 | 1019.9 |
| 20260830065503 | 62 | 0 | 0.0 | 0.0 | 0.00 | 0.00 | 0.00 | 84 | 1019.9 |
| 20260830065003 | 62 | 0 | 0.0 | 0.0 | 0.00 | 0.00 | 0.00 | 84 | 1019.9 |
| 20260830064503 | 62 | 0 | 0.0 | 0.0 | 0.00 | 0.00 | 0.00 | 84 | 1019.9 |
| 20260830064003 | 62 | 0 | 0.0 | 0.0 | 0.00 | 0.00 | 0.00 | 84 | 1020.0 |
| 20260830063503 | 62 | 0 | 0.0 | 0.0 | 0.00 | 0.00 | 0.00 | 84 | 1019.9 |
| 20260830063003 | 62 | 0 | 0.0 | 0.0 | 0.00 | 0.00 | 0.00 | 84 | 1020.0 |
| 20260830062503 | 63 | 0 | 0.0 | 0.0 | 0.00 | 0.00 | 0.00 | 84 | 1020.0 |
| 20260830062003 | 63 | 0 | 0.0 | 0.0 | 0.00 | 0.00 | 0.00 | 84 | 1020.1 |
| 20260830061503 | 63 | 0 | 0.0 | 0.0 | 0.00 | 0.00 | 0.00 | 84 | 1020.0 |
| 20260830061003 | 63 | 0 | 0.0 | 0.0 | 0.00 | 0.00 | 0.00 | 84 | 1020.0 |
| 20260830060503 | 63 | 0 | 0.0 | 0.0 | 0.00 | 0.00 | 0.00 | 84 | 1020.1 |
| 20260830060003 | 63 | 0 | 0.0 | 0.0 | 0.00 | 0.00 | 0.00 | 84 | 1020.2 |
| 20260830055503 | 63 | 0 | 0.0 | 0.0 | 0.00 | 0.00 | 0.00 | 84 | 1020.2 |
| 20260830055024 | 63 | 0 | 0.0 | 0.0 | 0.00 | 0.00 | 0.00 | 84 | 1020.2 |
| 20260830054503 | 63 | 0 | 0.0 | 0.0 | 0.00 | 0.00 | 0.00 | 84 | 1020.2 |
| 20260830054024 | 63 | 0 | 0.0 | 0.0 | 0.00 | 0.00 | 0.00 | 84 | 1020.3 |
| 20260830053503 | 64 | 0 | 0.0 | 0.0 | 0.00 | 0.00 | 0.00 | 83 | 1020.2 |
| 20260830053003 | 64 | 0 | 0.0 | 0.0 | 0.00 | 0.00 | 0.00 | 83 | 1020.2 |
| 20260830052503 | 64 | 0 | 0.0 | 0.0 | 0.00 | 0.00 | 0.00 | 83 | 1020.3 |
| 20260830052003 | 63 | 208 | 0.0 | 1.0 | 0.00 | 0.00 | 0.00 | 83 | 1020.2 |
| 20260830051503 | 63 | 208 | 0.0 | 1.0 | 0.00 | 0.00 | 0.00 | 83 | 1020.2 |
| 20260830051003 | 63 | 0 | 0.0 | 0.0 | 0.00 | 0.00 | 0.00 | 82 | 1020.3 |
| 20260830050503 | 63 | 0 | 0.0 | 0.0 | 0.00 | 0.00 | 0.00 | 82 | 1020.4 |
| 20260830050003 | 63 | 0 | 0.0 | 0.0 | 0.00 | 0.00 | 0.00 | 82 | 1020.5 |
| 20260830045503 | 63 | 0 | 0.0 | 0.0 | 0.00 | 0.00 | 0.00 | 82 | 1020.4 |
| 20260830045024 | 63 | 0 | 0.0 | 0.0 | 0.00 | 0.00 | 0.00 | 82 | 1020.4 |
| 20260830044503 | 63 | 0 | 0.0 | 0.0 | 0.00 | 0.00 | 0.00 | 82 | 1020.4 |
| 20260830044003 | 63 | 0 | 0.0 | 0.0 | 0.00 | 0.00 | 0.00 | 82 | 1020.3 |
| 20260830043524 | 63 | 0 | 0.0 | 0.0 | 0.00 | 0.00 | 0.00 | 82 | 1020.2 |
| 20260830043003 | 63 | 0 | 0.0 | 0.0 | 0.00 | 0.00 | 0.00 | 82 | 1020.2 |
| 20260830042503 | 63 | 0 | 0.0 | 0.0 | 0.00 | 0.00 | 0.00 | 81 | 1020.1 |
| 20260830042003 | 63 | 0 | 0.0 | 0.0 | 0.00 | 0.00 | 0.00 | 81 | 1020.2 |
| 20260830041503 | 64 | 0 | 0.0 | 0.0 | 0.00 | 0.00 | 0.00 | 80 | 1020.2 |
| 20260830041003 | 64 | 0 | 0.0 | 0.0 | 0.00 | 0.00 | 0.00 | 80 | 1020.1 |
| 20260830040524 | 64 | 0 | 0.0 | 0.0 | 0.00 | 0.00 | 0.00 | 80 | 1020.0 |
| 20260830040003 | 64 | 0 | 0.0 | 0.0 | 0.00 | 0.00 | 0.00 | 80 | 1020.0 |
| 20260830035503 | 64 | 0 | 0.0 | 0.0 | 0.00 | 0.00 | 0.00 | 79 | 1020.0 |
| 20260830035003 | 64 | 0 | 0.0 | 0.0 | 0.00 | 0.00 | 0.00 | 79 | 1020.0 |
| 20260830034503 | 64 | 0 | 0.0 | 0.0 | 0.00 | 0.00 | 0.00 | 79 | 1020.1 |
| 20260830034003 | 64 | 0 | 0.0 | 0.0 | 0.00 | 0.00 | 0.00 | 79 | 1020.0 |
| 20260830033503 | 64 | 0 | 0.0 | 0.0 | 0.00 | 0.00 | 0.00 | 78 | 1020.0 |
| 20260830033025 | 64 | 0 | 0.0 | 0.0 | 0.00 | 0.00 | 0.00 | 78 | 1020.0 |
| 20260830032503 | 64 | 0 | 0.0 | 0.0 | 0.00 | 0.00 | 0.00 | 77 | 1020.0 |
| 20260830032003 | 65 | 0 | 0.0 | 0.0 | 0.00 | 0.00 | 0.00 | 77 | 1020.0 |
| 20260830031503 | 65 | 0 | 0.0 | 0.0 | 0.00 | 0.00 | 0.00 | 77 | 1020.0 |
| 20260830031003 | 65 | 0 | 0.0 | 0.0 | 0.00 | 0.00 | 0.00 | 77 | 1020.1 |
| 20260830030503 | 65 | 0 | 0.0 | 0.0 | 0.00 | 0.00 | 0.00 | 75 | 1020.1 |
| 20260830030024 | 65 | 0 | 0.0 | 0.0 | 0.00 | 0.00 | 0.00 | 73 | 1020.1 |
| 20260830025503 | 65 | 0 | 0.0 | 0.0 | 0.00 | 0.00 | 0.00 | 73 | 1020.2 |
| 20260830025003 | 65 | 0 | 0.0 | 0.0 | 0.00 | 0.00 | 0.00 | 74 | 1020.2 |
| 20260830024503 | 65 | 0 | 0.0 | 0.0 | 0.00 | 0.00 | 0.00 | 74 | 1020.3 |
| 20260830024003 | 65 | 208 | 0.0 | 1.0 | 0.00 | 0.00 | 0.00 | 74 | 1020.2 |
| 20260830023503 | 65 | 208 | 0.0 | 2.0 | 0.00 | 0.00 | 0.00 | 75 | 1020.2 |